Lapse_Rate
5.1 5.0 4.8 4.9 5.1 5.0 5.2 4.9 4.9 4.8 5.5 5.7 6.1 5.4 6.1 6.7 6.4 6.8 7.0 7.2 7.0 8.1 8.1 7.8 8.0 8.0 8.1 7.6 8.0 8.1 8.5 8.1 9.0 7.4 7.9 8.3 8.8 8.3 8.9 9.1 9.0 8.7 9.0 9.0
5.0 5.2 5.1 5.1 5.4 5.5 5.6 5.1 4.8 5.1 5.5 5.5 5.2 5.6 5.8 6.1 6.8 7.2 6.9 6.7 7.1 8.4 8.4 7.8 8.0 8.2 7.9 7.5 7.5 7.7 8.4 8.2 8.2 9.1 8.3 7.7 8.3 8.6 9.3 9.0 9.1 8.8 8.3 8.6
5.4 5.5 5.6 5.8 6.0 6.1 6.2 5.8 5.5 5.5 5.6 5.8 5.5 5.4 5.6 6.0 6.5 7.1 7.3 6.8 8.4 8.6 7.7 8.1 8.1 8.0 7.6 7.6 7.9 8.3 8.5 8.2 7.9 8.3 8.6 8.7 8.2 8.6 9.3 9.2 8.9 8.4 8.6 9.1
6.0 6.6 6.5 6.5 6.4 6.3 6.3 6.1 5.9 6.0 5.6 5.6 5.4 5.5 5.6 6.8 6.7 6.8 7.2 7.2 6.7 8.5 8.4 8.5 8.0 7.8 7.5 7.6 8.1 8.2 8.2 8.0 8.1 8.3 9.0 9.3 9.3 9.2 9.3 9.3 9.3 9.2 9.0 9.2
6.8 6.9 7.0 7.1 7.2 6.8 6.5 6.6 6.5 5.8 6.3 6.3 5.8 6.0 6.0 6.6 7.4 7.1 7.1 7.6 8.0 7.5 8.8 8.8 8.8 7.9 7.7 7.7 8.1 8.0 8.2 8.1 7.9 8.2 8.4 9.3 9.2 9.4 9.4 9.4 9.4 9.3 9.4 9.3
6.7 6.8 6.8 6.8 7.2 7.3 7.3 7.1 7.4 6.9 6.7 6.2 6.0 5.9 5.7 6.2 7.6 7.3 7.2 7.7 8.0 7.1 8.0 7.4 7.6 7.2 8.1 6.8 7.2 7.7 8.3 7.8 8.2 8.0 8.4 8.7 8.6 7.9 9.1 9.0 9.2 8.9 8.8 9.1
6.9 6.8 6.6 6.8 7.1 7.5 7.4 7.2 7.5 7.3 7.1 6.7 6.3 5.9 6.1 6.5 7.5 7.4 7.2 8.0 8.2 8.1 7.6 7.2 6.9 7.6 7.4 7.2 7.3 6.9 7.6 8.2 8.5 8.0 7.9 7.5 7.6 8.0 8.3 8.4 8.5 8.8 8.7 8.7
7.6 7.4 7.2 7.1 7.4 7.2 7.5 7.7 7.0 7.3 7.1 6.9 6.3 6.6 6.6 7.0 7.7 8.0 8.6 8.6 7.6 8.1 7.9 7.6 7.1 6.6 5.9 6.7 7.0 6.6 7.2 7.6 8.0 7.6 7.5 7.9 8.1 8.0 8.1 8.6 8.4 8.8 8.7 8.8
7.9 7.5 7.4 7.0 7.2 7.3 7.3 7.3 7.2 7.2 7.1 7.1 6.6 6.7 6.8 6.9 7.3 7.7 7.6 8.9 8.6 7.2 7.5 8.0 8.4 7.9 7.2 7.5 6.5 6.4 7.2 7.1 7.3 7.5 7.7 7.6 7.9 7.9 8.4 8.7 8.2 8.8 8.9 8.7
7.4 7.1 7.1 6.9 6.9 7.1 7.1 7.2 7.4 7.0 7.0 7.1 7.2 7.0 6.8 6.9 7.3 7.1 8.1 7.2 7.3 7.2 7.2 7.6 8.4 8.4 8.8 8.2 6.6 6.3 6.6 6.7 6.7 7.3 7.5 7.8 8.1 8.3 8.7 8.5 8.1 9.2 9.0 8.6
7.2 7.3 7.0 6.9 6.7 6.7 7.0 7.2 7.3 6.9 7.0 6.9 7.2 7.4 7.1 6.6 7.1 7.2 7.8 8.0 7.4 6.6 7.0 7.7 8.2 8.5 8.4 8.6 7.8 7.0 6.6 6.8 6.8 7.2 7.6 7.3 8.1 8.2 8.2 8.7 8.5 8.5 8.4 8.3
7.1 7.0 7.0 6.7 6.7 6.6 6.9 7.0 7.1 7.1 7.1 7.0 7.3 7.2 7.0 6.7 6.9 7.3 8.0 7.5 7.3 6.8 7.2 7.7 8.4 8.4 7.8 8.0 8.2 8.0 7.2 6.7 7.5 7.8 8.0 8.1 8.4 8.7 8.7 8.9 8.8 8.5 8.4 7.9
7.2 7.2 6.9 6.7 6.8 7.0 7.2 7.0 7.1 7.1 7.0 7.1 7.0 6.7 6.8 6.7 7.2 7.7 7.8 7.7 7.7 7.3 7.3 8.0 8.0 8.0 7.7 7.6 8.0 8.3 7.7 7.7 7.3 7.4 7.6 8.1 8.1 8.3 8.5 8.5 8.7 8.6 8.3 8.0
7.6 7.4 7.0 7.0 6.8 7.2 6.9 7.2 7.2 7.0 6.9 7.0 6.6 6.5 6.4 6.8 7.5 7.5 6.9 7.4 7.8 7.4 7.3 7.5 7.6 8.2 8.0 7.7 7.9 8.0 7.8 7.7 7.3 7.5 8.0 7.9 8.0 8.0 8.2 7.9 8.3 8.5 8.1 7.6
7.2 7.0 6.9 7.0 7.0 6.9 7.0 7.0 6.8 6.6 6.7 6.6 6.1 6.6 6.3 7.0 7.4 7.7 7.5 7.1 7.0 6.8 6.9 6.8 6.9 7.4 8.0 7.7 7.4 7.1 7.5 7.4 7.7 7.6 8.2 7.8 7.8 7.9 7.8 7.8 7.9 7.8 7.7 7.8
6.9 6.9 6.9 6.9 7.0 6.9 6.9 6.4 6.3 6.3 6.2 6.0 6.2 6.6 7.0 7.0 6.9 7.1 7.2 7.1 6.9 6.8 6.6 6.5 6.9 7.6 7.6 7.4 7.2 7.6 7.7 7.9 7.5 7.3 7.7 7.6 7.7 7.6 7.8 7.6 7.6 7.8 7.7 7.7
7.0 7.0 6.8 6.7 6.7 6.7 6.4 6.0 6.1 6.3 6.2 6.0 6.5 7.1 7.4 7.3 6.7 7.3 7.5 7.0 6.8 6.8 6.6 6.5 6.8 7.3 7.2 6.8 6.9 7.7 7.8 7.7 7.7 7.4 7.7 7.8 7.9 7.6 7.6 7.5 7.3 7.7 7.8 7.9
6.8 6.6 6.5 6.4 6.5 6.2 6.0 6.1 6.3 6.2 5.9 6.4 6.5 6.7 6.7 7.5 7.2 6.8 6.8 6.6 6.5 6.5 6.4 6.5 6.4 6.7 6.9 6.5 6.7 7.2 7.5 7.5 7.7 7.6 7.6 7.8 8.0 8.2 8.2 7.9 7.6 7.6 7.8 7.8
6.2 6.2 6.1 6.0 5.8 5.9 5.9 5.9 5.9 5.8 5.9 6.0 6.2 6.9 6.8 6.7 6.8 6.8 6.4 6.5 6.2 6.0 6.3 6.3 6.6 6.6 6.6 6.6 6.4 6.7 6.6 6.6 7.0 7.5 7.4 7.6 7.5 7.4 7.7 7.8 7.7 7.8 7.7 7.8
6.1 6.0 6.1 6.1 6.1 5.9 5.7 5.4 5.3 5.5 5.6 5.7 6.2 6.2 6.1 6.6 6.4 6.4 6.5 6.8 6.5 5.9 6.5 6.4 6.2 6.6 6.3 6.3 6.4 6.5 6.5 6.4 6.4 6.4 6.6 6.9 7.1 7.2 7.3 7.2 7.3 7.2 7.2 7.3
6.0 6.3 6.2 5.8 5.7 5.6 5.7 5.6 5.5 5.7 6.0 6.1 6.4 6.4 6.2 6.5 6.5 6.6 6.9 6.7 6.6 6.4 6.5 6.3 6.4 6.1 6.0 6.0 5.9 6.1 6.1 6.1 6.0 6.0 6.0 6.4 6.5 6.6 6.7 6.8 6.7 6.7 6.8 7.0
6.3 6.2 5.8 5.6 5.6 5.8 5.7 6.0 6.5 6.6 7.3 6.4 6.5 6.8 6.8 6.8 6.7 6.7 6.3 6.6 6.6 6.4 6.5 6.6 6.0 5.2 5.3 5.6 5.9 5.9 6.0 5.9 5.9 6.1 6.2 6.0 6.2 6.3 6.6 6.6 6.6 6.6 6.5 6.4
5.8 5.7 5.6 5.7 5.8 6.0 6.3 6.7 7.1 7.1 7.3 7.0 6.4 6.5 6.7 6.9 6.6 6.7 6.8 6.6 6.1 5.7 5.4 4.3 3.9 4.2 4.7 5.2 5.5 5.8 5.9 5.9 5.8 5.9 5.9 5.7 5.7 5.9 6.0 6.0 6.1 6.0 6.1 6.1
5.5 5.8 5.6 5.7 6.0 5.8 6.2 6.5 6.7 6.7 6.7 6.7 6.6 7.2 6.8 6.5 6.5 6.5 6.5 6.1 6.2 5.2 4.9 3.9 4.2 4.6 4.8 5.0 5.2 5.3 5.6 5.6 5.5 5.5 5.5 5.4 5.3 5.4 5.5 5.5 5.7 5.5 5.3 5.1
6.2 6.2 5.9 5.5 5.6 6.0 6.6 6.7 6.5 6.2 6.2 6.6 6.5 6.6 6.9 6.7 6.0 6.1 5.9 5.9 4.2 3.3 2.8 3.3 3.7 4.3 4.5 4.7 4.9 5.1 5.2 5.3 5.2 5.1 5.1 5.1 5.0 4.8 4.8 4.7 4.7 4.4 4.3 4.3
6.4 6.0 5.4 5.3 5.5 6.0 6.6 6.8 6.2 5.9 5.9 6.4 6.5 6.3 6.2 5.9 5.7 5.5 4.4 3.8 2.7 2.6 3.1 3.4 3.8 3.9 4.2 4.5 4.4 4.6 4.6 4.6 4.6 4.5 4.5 4.5 4.3 4.2 4.2 4.2 4.1 4.0 3.9 3.9
5.9 5.5 6.0 6.0 6.0 5.8 5.9 6.3 6.4 5.9 5.6 5.9 6.1 6.1 5.0 4.8 4.6 3.6 3.4 2.5 3.1 3.3 3.5 3.6 3.8 4.1 4.1 4.1 4.1 4.2 4.3 4.3 4.4 4.3 4.2 4.1 4.1 4.1 3.9 3.8 3.8 3.8 3.7 3.6
Wind_Speed
37 36 36 35 37 37 23 7 10 8 17 10 5 16 35 34 24 30 21 18 18 23 13 18 21 24 20 12 17 21 22 11 12 17 18 20 16 19 18 10 12 8 7 12
29 33 36 37 39 42 13 6 7 12 18 12 15 24 37 36 30 24 29 20 20 12 13 11 18 16 15 13 21 19 20 12 12 15 11 10 14 16 15 17 11 12 8 7
29 30 36 40 41 46 15 7 9 5 14 19 26 32 37 37 29 27 25 19 23 20 15 12 5 19 7 15 14 15 12 17 20 15 17 15 18 17 17 15 10 12 14 17
31 32 33 41 43 46 16 8 8 11 14 20 33 31 22 33 34 31 24 18 26 24 20 16 15 12 5 5 8 6 9 22 20 23 20 17 23 23 22 22 19 17 16 18
33 34 31 38 42 47 12 5 7 16 15 26 30 26 34 36 34 28 29 24 19 20 21 17 13 11 8 7 8 14 16 16 21 21 20 18 19 18 18 20 21 20 19 20
36 36 34 41 38 38 6 6 13 14 18 27 23 24 35 40 32 32 32 27 20 17 20 4 12 6 8 4 6 9 9 13 16 17 18 19 17 17 19 20 19 17 18 17
38 41 39 38 42 42 5 8 12 10 14 16 25 32 33 36 34 31 31 29 23 21 10 2 4 9 5 4 7 9 8 14 12 8 3 16 10 15 20 22 20 17 17 17
35 41 40 40 37 45 11 12 10 9 12 20 24 28 27 29 29 24 24 28 27 12 6 7 7 3 5 6 12 16 12 10 7 8 12 13 18 10 13 15 16 17 16 16
26 34 40 40 43 43 13 13 12 10 11 16 26 19 25 20 19 19 21 21 12 8 4 7 16 8 7 8 8 21 14 14 10 7 14 19 12 14 12 13 13 14 14 12
34 34 40 40 42 42 15 10 17 6 8 13 7 14 20 22 20 15 19 19 13 14 6 8 11 13 12 12 12 8 8 7 12 13 10 8 10 14 12 13 14 8 5 6
28 37 38 39 40 36 16 10 14 9 5 5 9 13 17 18 18 16 20 14 9 9 9 9 7 7 9 13 16 14 9 7 6 9 11 14 2 10 14 15 16 6 9 9
31 33 35 36 37 33 18 7 14 7 0 3 1 6 3 1 17 17 16 12 19 9 10 7 7 5 2 11 10 15 13 9 8 8 5 9 12 14 16 16 12 9 10 9
29 31 33 34 34 27 10 10 10 8 3 4 5 6 4 2 10 10 13 13 15 17 13 6 4 4 8 7 10 10 15 11 11 12 11 14 10 15 15 8 12 12 8 9
25 29 29 31 35 24 12 9 9 8 4 3 4 2 4 3 8 11 9 12 19 7 9 6 4 5 7 7 9 11 11 9 12 16 17 20 14 9 10 14 10 9 7 8
26 31 35 31 27 25 11 7 1 5 4 3 3 1 8 6 4 12 12 13 10 9 9 5 6 7 6 4 6 11 12 13 9 8 12 9 13 9 7 11 13 11 12 12
30 39 32 29 27 27 9 4 2 4 5 2 1 4 7 12 9 10 16 15 11 9 11 8 7 11 9 4 9 14 16 13 14 14 14 9 6 6 3 6 12 10 11 12
35 29 28 25 21 8 4 2 8 5 3 1 2 3 3 11 7 3 7 13 10 7 8 6 8 7 5 5 9 8 8 6 12 11 3 10 7 4 3 6 7 4 9 9
32 29 25 23 16 11 6 4 11 8 3 2 0 3 2 8 4 3 9 9 11 8 5 5 10 6 4 6 10 15 17 17 10 7 7 7 3 2 3 2 4 9 10 12
28 27 22 9 3 3 4 6 5 2 0 4 3 2 2 8 4 5 3 6 8 4 7 9 5 7 7 7 10 11 12 8 8 2 4 5 7 6 5 6 7 8 9 9
24 12 3 4 3 16 16 2 3 2 3 2 2 3 3 4 5 4 4 1 5 6 5 7 5 5 10 16 15 11 11 10 7 6 6 6 8 6 6 6 6 7 9 10
1 3 3 7 8 1 1 3 4 3 4 4 4 8 5 2 1 2 2 2 2 4 3 6 5 2 9 13 13 13 12 8 7 8 8 6 6 4 5 5 6 9 11 11
2 5 8 4 3 3 1 2 2 4 2 3 3 3 3 2 1 2 2 3 2 3 2 2 3 5 14 11 11 12 11 8 11 12 10 9 10 6 7 9 11 12 14 15
1 1 3 1 2 1 2 5 2 1 1 2 3 1 1 2 2 1 0 2 3 3 2 3 5 10 13 10 8 8 10 11 12 14 14 16 16 15 13 13 13 14 14 14
4 3 4 4 5 6 4 4 3 3 3 4 1 1 2 2 2 1 3 2 0 3 3 5 7 14 10 8 7 8 12 12 13 13 14 15 15 14 13 11 12 14 15 14
5 6 5 6 4 5 5 6 3 3 3 3 2 1 3 4 2 4 3 4 5 7 4 5 9 13 8 10 10 10 11 10 12 13 14 15 15 16 16 14 14 15 14 15
4 8 5 8 4 8 9 8 5 5 5 2 1 2 3 4 3 5 7 4 6 4 5 7 10 10 11 11 11 13 12 13 14 14 15 16 16 16 17 17 16 15 15 14
5 5 9 6 4 6 8 9 8 7 4 3 3 5 7 3 4 4 5 4 5 6 7 7 12 13 12 12 13 13 14 15 16 16 16 16 15 15 16 17 15 15 15 13
Wind_Direction
226 222 217 210 202 190 179 191 215 174 173 185 196 216 215 224 225 252 256 251 265 239 239 214 230 219 211 230 200 207 219 210 200 204 213 229 208 208 210 228 213 235 264 279
222 217 216 207 198 185 175 196 185 173 177 193 206 218 229 230 219 236 243 236 254 232 235 231 226 220 214 178 218 203 210 217 222 204 180 213 223 223 223 223 242 243 218 253
225 223 219 207 195 186 178 173 176 178 193 215 202 208 219 223 222 221 240 242 242 247 226 228 255 216 193 206 227 223 211 212 222 221 213 202 214 235 232 234 226 239 250 265
226 223 220 210 196 187 176 187 185 181 183 203 214 212 219 216 216 222 220 252 263 235 230 226 220 233 140 202 210 249 226 219 220 230 245 231 218 217 223 237 231 232 247 253
226 219 221 210 193 187 187 170 196 178 184 204 207 215 219 216 206 205 213 217 246 252 237 224 211 206 182 178 201 226 210 224 230 233 235 249 254 248 236 238 234 244 244 260
224 217 215 206 191 187 169 203 216 183 216 194 206 214 217 221 211 216 214 217 206 261 250 7 115 56 88 76 323 218 217 222 224 233 228 232 240 242 245 244 248 238 245 257
228 210 205 200 192 192 136 180 196 199 201 196 205 213 222 218 219 211 213 216 227 197 316 246 334 311 3 281 313 287 251 229 237 215 268 238 242 237 233 241 252 240 241 253
216 201 198 192 191 189 173 177 206 207 208 199 213 215 216 226 220 208 220 214 210 217 158 269 235 178 240 225 247 289 247 246 224 219 225 245 233 222 225 246 242 238 254 263
202 196 193 188 189 187 177 181 194 210 204 213 207 213 217 211 215 209 232 227 161 186 151 212 243 223 221 192 186 270 244 232 224 193 230 230 235 231 219 247 253 252 255 265
202 197 184 184 184 184 176 182 192 192 226 219 231 211 209 208 198 202 219 203 173 172 166 210 219 250 236 204 177 207 202 213 225 226 241 246 226 228 196 210 249 264 232 249
171 170 171 176 177 178 164 177 191 198 197 242 204 260 209 197 207 199 209 195 182 181 196 205 185 238 245 240 215 171 187 204 194 233 233 236 163 154 200 222 247 221 221 235
155 160 163 171 169 169 164 161 189 198 282 43 93 295 349 175 225 199 212 189 183 182 204 201 212 185 246 234 239 212 200 217 224 224 234 217 189 220 221 245 280 208 237 218
154 156 155 157 159 155 169 149 142 153 133 190 201 161 57 286 277 278 217 207 198 210 217 196 198 182 193 210 228 227 226 233 238 266 267 261 223 241 270 261 243 271 230 224
141 147 152 155 153 156 164 134 151 149 158 178 137 169 251 53 291 256 243 245 234 252 202 201 182 189 211 223 243 235 239 220 226 252 254 266 257 251 266 265 255 246 227 221
142 142 133 132 137 134 106 81 93 189 255 160 165 343 227 220 321 273 262 255 255 201 196 216 219 214 246 237 255 244 232 236 230 245 261 265 255 254 328 243 236 237 235 203
130 132 123 134 119 111 107 92 287 227 161 89 119 328 232 198 179 240 249 238 228 200 207 213 225 223 205 234 246 242 243 242 238 256 277 302 306 309 318 297 253 224 226 210
123 124 118 117 120 111 87 143 149 173 145 143 359 299 226 201 191 276 256 247 225 227 236 211 228 203 195 246 245 253 267 301 297 260 308 273 245 304 332 255 216 191 205 204
113 114 103 98 101 136 120 55 135 167 127 128 89 249 205 183 156 208 205 214 211 224 224 231 212 199 219 246 250 247 259 269 265 256 218 268 306 239 200 189 167 201 181 173
105 103 100 91 99 158 89 158 194 332 78 179 188 269 191 163 205 221 154 204 197 223 216 221 230 216 225 15 347 354 351 329 331 317 291 263 255 249 194 185 185 192 170 165
126 137 116 120 81 117 129 114 139 230 178 204 251 267 230 257 195 157 140 178 151 189 205 181 223 204 49 12 341 336 334 331 314 276 272 272 261 240 214 208 192 170 168 150
91 73 64 94 119 81 160 144 185 149 193 212 236 213 225 66 77 133 73 139 164 178 196 205 189 119 354 345 342 343 341 331 335 336 323 343 317 236 187 146 123 127 125 109
33 103 121 127 206 209 182 140 128 205 168 151 241 215 193 102 32 56 166 157 157 164 9 72 79 20 353 344 342 354 351 8 34 23 31 35 56 64 101 105 101 96 102 103
64 91 79 301 29 147 220 173 171 150 74 74 331 173 42 100 98 42 163 171 91 137 76 79 49 357 349 347 350 15 21 35 53 58 60 62 64 64 82 95 95 96 92 95
31 15 69 358 45 30 29 337 1 6 340 333 284 36 29 29 53 8 190 68 49 72 59 60 3 345 344 1 25 45 49 51 59 63 67 70 75 76 73 75 87 95 97 97
27 7 37 41 359 24 346 351 324 40 295 297 225 94 56 19 19 3 58 65 70 34 50 12 341 331 8 29 40 55 61 61 66 67 71 72 76 76 73 69 73 76 79 83
57 35 5 351 11 4 356 354 345 11 329 305 13 92 99 33 25 48 20 64 44 48 10 1 349 33 42 49 53 57 62 66 70 70 73 73 73 77 79 72 68 70 76 80
38 55 24 3 22 351 337 332 331 316 302 61 53 54 42 39 54 53 21 42 38 22 27 18 25 31 41 50 59 62 67 69 68 70 69 71 73 75 73 75 74 78 77 78